Time,TemperatureF,DewpointF,PressureIn,WindDirection,WindDirectionDegrees,WindSpeedMPH,WindSpeedGustMPH,Humidity,HourlyPrecipIn,Conditions,Clouds,dailyrainin,SoftwareType,DateUTC
2013-03-08 00:01:00,22.0,20.0,30.42,South,178,0.0,0.0,92,0.00,,,0.04,,2013-03-08 06:01:00,
2013-03-08 00:11:00,22.0,20.0,30.42,South,178,0.0,0.0,92,0.00,,,0.04,,2013-03-08 06:11:00,
2013-03-08 00:22:00,22.0,20.0,30.42,South,178,0.0,0.0,92,0.00,,,0.04,,2013-03-08 06:22:00,
2013-03-08 00:32:00,22.0,20.0,30.42,South,178,0.0,0.0,92,0.00,,,0.04,,2013-03-08 06:32:00,
2013-03-08 00:42:00,22.0,20.0,30.42,South,178,0.0,0.0,92,0.00,,,0.04,,2013-03-08 06:42:00,
2013-03-08 00:52:00,22.0,20.0,30.43,South,178,0.0,0.0,93,0.00,,,0.04,,2013-03-08 06:52:00,
2013-03-08 01:01:00,22.0,20.0,30.43,South,178,0.0,0.0,93,0.00,,,0.04,,2013-03-08 07:01:00,
2013-03-08 01:11:00,22.0,20.0,30.43,South,178,0.0,0.0,93,0.00,,,0.04,,2013-03-08 07:11:00,
2013-03-08 01:22:00,22.0,20.0,30.43,South,178,0.0,1.0,93,0.00,,,0.04,,2013-03-08 07:22:00,
2013-03-08 01:31:00,22.0,20.0,30.44,South,178,0.0,1.0,92,0.00,,,0.04,,2013-03-08 07:31:00,
2013-03-08 01:42:00,22.0,20.0,30.44,South,178,0.0,1.0,92,0.00,,,0.04,,2013-03-08 07:42:00,
2013-03-08 01:52:00,22.0,20.0,30.44,South,178,0.0,0.0,91,0.00,,,0.04,,2013-03-08 07:52:00,
2013-03-08 02:01:00,21.0,19.0,30.45,South,178,0.0,0.0,91,0.00,,,0.04,,2013-03-08 08:01:00,
2013-03-08 02:11:00,21.0,19.0,30.45,South,178,0.0,0.0,91,0.00,,,0.04,,2013-03-08 08:11:00,
2013-03-08 02:22:00,21.0,19.0,30.45,South,178,0.0,0.0,91,0.00,,,0.04,,2013-03-08 08:22:00,
2013-03-08 02:32:00,20.0,18.0,30.45,South,178,0.0,0.0,91,0.00,,,0.04,,2013-03-08 08:32:00,
2013-03-08 02:42:00,20.0,18.0,30.45,South,178,0.0,0.0,91,0.00,,,0.04,,2013-03-08 08:42:00,
2013-03-08 02:52:00,20.0,18.0,30.44,South,178,0.0,0.0,92,0.00,,,0.04,,2013-03-08 08:52:00,
2013-03-08 03:03:00,20.0,18.0,30.42,South,178,0.0,1.0,93,0.00,,,0.04,,2013-03-08 09:03:00,
2013-03-08 03:11:00,20.0,18.0,30.42,South,178,0.0,1.0,93,0.00,,,0.04,,2013-03-08 09:11:00,
2013-03-08 03:21:00,20.0,18.0,30.42,South,178,0.0,0.0,92,0.00,,,0.04,,2013-03-08 09:21:00,
2013-03-08 03:32:00,20.0,18.0,30.42,South,178,0.0,0.0,93,0.00,,,0.04,,2013-03-08 09:32:00,
2013-03-08 03:42:00,20.0,18.0,30.42,South,178,0.0,0.0,93,0.00,,,0.04,,2013-03-08 09:42:00,
2013-03-08 03:52:00,21.0,19.0,30.44,South,178,0.0,0.0,93,0.00,,,0.04,,2013-03-08 09:52:00,
2013-03-08 04:01:00,21.0,19.0,30.44,South,178,0.0,0.0,93,0.00,,,0.04,,2013-03-08 10:01:00,
2013-03-08 04:11:00,21.0,19.0,30.44,South,178,0.0,0.0,93,0.00,,,0.04,,2013-03-08 10:11:00,
2013-03-08 04:21:00,21.0,19.0,30.45,South,178,0.0,1.0,93,0.00,,,0.04,,2013-03-08 10:21:00,
2013-03-08 04:31:00,22.0,20.0,30.45,South,178,0.0,0.0,92,0.00,,,0.04,,2013-03-08 10:31:00,
2013-03-08 04:42:00,22.0,20.0,30.45,South,178,0.0,0.0,92,0.00,,,0.04,,2013-03-08 10:42:00,
2013-03-08 04:52:00,21.0,19.0,30.45,South,178,0.0,0.0,92,0.00,,,0.04,,2013-03-08 10:52:00,
2013-03-08 05:01:00,21.0,19.0,30.45,South,178,0.0,0.0,92,0.00,,,0.04,,2013-03-08 11:01:00,
2013-03-08 05:11:00,21.0,19.0,30.45,South,178,0.0,0.0,92,0.00,,,0.04,,2013-03-08 11:11:00,
2013-03-08 05:21:00,20.0,18.0,30.45,South,178,0.0,0.0,92,0.00,,,0.04,,2013-03-08 11:21:00,
2013-03-08 05:32:00,20.0,18.0,30.45,South,178,0.0,0.0,92,0.00,,,0.04,,2013-03-08 11:32:00,
2013-03-08 05:42:00,20.0,18.0,30.45,South,178,0.0,0.0,92,0.00,,,0.04,,2013-03-08 11:42:00,
2013-03-08 05:52:00,20.0,18.0,30.45,South,178,0.0,0.0,93,0.00,,,0.04,,2013-03-08 11:52:00,
2013-03-08 06:01:00,20.0,18.0,30.46,South,178,0.0,0.0,93,0.00,,,0.04,,2013-03-08 12:01:00,
2013-03-08 06:11:00,20.0,18.0,30.46,South,178,0.0,0.0,93,0.00,,,0.04,,2013-03-08 12:11:00,
2013-03-08 06:22:00,20.0,18.0,30.46,South,178,0.0,0.0,93,0.00,,,0.04,,2013-03-08 12:22:00,
2013-03-08 06:32:00,20.0,18.0,30.46,South,178,0.0,2.0,92,0.00,,,0.04,,2013-03-08 12:32:00,
2013-03-08 06:43:00,20.0,18.0,30.46,South,178,0.0,2.0,92,0.00,,,0.04,,2013-03-08 12:43:00,
2013-03-08 06:53:00,20.0,18.0,30.46,South,178,0.0,1.0,92,0.00,,,0.04,,2013-03-08 12:53:00,
2013-03-08 07:01:00,20.0,18.0,30.46,South,178,0.0,1.0,92,0.00,,,0.04,,2013-03-08 13:01:00,
2013-03-08 07:11:00,20.0,18.0,30.46,South,178,0.0,1.0,92,0.00,,,0.04,,2013-03-08 13:11:00,
2013-03-08 07:21:00,20.0,18.0,30.46,South,178,0.0,1.0,92,0.00,,,0.04,,2013-03-08 13:21:00,
2013-03-08 07:32:00,21.0,19.0,30.47,South,178,0.0,1.0,92,0.00,,,0.04,,2013-03-08 13:32:00,
2013-03-08 07:42:00,21.0,19.0,30.47,South,178,0.0,1.0,92,0.00,,,0.04,,2013-03-08 13:42:00,
2013-03-08 07:52:00,22.0,20.0,30.47,South,178,0.0,1.0,91,0.00,,,0.04,,2013-03-08 13:52:00,
2013-03-08 08:02:00,23.0,20.0,30.47,South,178,0.0,2.0,89,0.00,,,0.04,,2013-03-08 14:02:00,
2013-03-08 08:11:00,23.0,20.0,30.47,South,178,0.0,2.0,89,0.00,,,0.04,,2013-03-08 14:11:00,
2013-03-08 08:22:00,24.0,21.0,30.47,South,178,0.0,2.0,88,0.00,,,0.04,,2013-03-08 14:22:00,
2013-03-08 08:32:00,25.0,22.0,30.47,South,178,0.0,2.0,87,0.00,,,0.04,,2013-03-08 14:32:00,
2013-03-08 08:42:00,25.0,22.0,30.47,South,178,0.0,2.0,87,0.00,,,0.04,,2013-03-08 14:42:00,
2013-03-08 08:52:00,26.0,22.0,30.48,South,178,0.0,3.0,86,0.00,,,0.04,,2013-03-08 14:52:00,
2013-03-08 09:02:00,29.0,25.0,30.47,South,178,0.0,1.0,85,0.00,,,0.04,,2013-03-08 15:02:00,
2013-03-08 09:11:00,29.0,25.0,30.47,South,178,0.0,1.0,85,0.00,,,0.04,,2013-03-08 15:11:00,
2013-03-08 09:22:00,30.0,25.0,30.48,South,173,0.0,3.0,81,0.00,,,0.04,,2013-03-08 15:22:00,
2013-03-08 09:32:00,32.0,26.0,30.47,East,89,0.0,2.0,79,0.00,,,0.04,,2013-03-08 15:32:00,
2013-03-08 09:42:00,32.0,26.0,30.47,East,89,0.0,2.0,79,0.00,,,0.04,,2013-03-08 15:42:00,
2013-03-08 09:53:00,32.0,26.0,30.47,SE,132,0.0,5.0,79,0.00,,,0.04,,2013-03-08 15:53:00,
2013-03-08 10:01:00,34.0,28.0,30.47,SE,145,0.0,2.0,77,0.00,,,0.04,,2013-03-08 16:01:00,
2013-03-08 10:11:00,34.0,28.0,30.47,SE,145,0.0,2.0,77,0.00,,,0.04,,2013-03-08 16:11:00,
2013-03-08 10:22:00,35.0,28.0,30.47,ESE,113,1.0,5.0,76,0.00,,,0.04,,2013-03-08 16:22:00,
2013-03-08 10:32:00,34.0,28.0,30.47,ESE,103,0.0,4.0,78,0.00,,,0.04,,2013-03-08 16:32:00,
2013-03-08 10:42:00,34.0,28.0,30.47,ESE,103,0.0,4.0,78,0.00,,,0.04,,2013-03-08 16:42:00,
2013-03-08 10:52:00,35.0,29.0,30.47,ESE,115,1.0,5.0,78,0.00,,,0.04,,2013-03-08 16:52:00,
2013-03-08 11:02:00,36.0,29.0,30.47,SSE,161,1.0,8.0,76,0.00,,,0.03,,2013-03-08 17:02:00,
2013-03-08 11:11:00,36.0,29.0,30.47,SSE,161,1.0,8.0,76,0.00,,,0.03,,2013-03-08 17:11:00,
2013-03-08 11:21:00,35.0,29.0,30.47,SSE,151,3.0,8.0,77,0.00,,,0.03,,2013-03-08 17:21:00,
2013-03-08 11:32:00,36.0,29.0,30.47,South,173,2.0,8.0,76,0.00,,,0.03,,2013-03-08 17:32:00,
2013-03-08 11:42:00,36.0,29.0,30.47,South,173,2.0,8.0,76,0.00,,,0.03,,2013-03-08 17:42:00,
2013-03-08 11:52:00,37.0,30.0,30.46,NNE,25,2.0,6.0,75,0.00,,,0.03,,2013-03-08 17:52:00,
2013-03-08 12:02:00,37.0,30.0,30.45,SSE,157,2.0,6.0,75,0.00,,,0.01,,2013-03-08 18:02:00,
2013-03-08 12:11:00,37.0,30.0,30.45,SSE,157,2.0,6.0,75,0.00,,,0.01,,2013-03-08 18:11:00,
2013-03-08 12:21:00,37.0,30.0,30.45,SE,126,1.0,6.0,76,0.00,,,0.01,,2013-03-08 18:21:00,
2013-03-08 12:32:00,37.0,30.0,30.45,ESE,123,2.0,8.0,76,0.00,,,0.01,,2013-03-08 18:32:00,
2013-03-08 12:42:00,37.0,30.0,30.45,ESE,123,2.0,8.0,76,0.00,,,0.01,,2013-03-08 18:42:00,
2013-03-08 12:52:00,38.0,31.0,30.43,NE,48,1.0,6.0,76,0.00,,,0.01,,2013-03-08 18:52:00,
2013-03-08 13:01:00,38.0,31.0,30.42,South,173,1.0,6.0,76,0.00,,,0.00,,2013-03-08 19:01:00,
2013-03-08 13:11:00,38.0,31.0,30.42,South,173,1.0,6.0,76,0.00,,,0.00,,2013-03-08 19:11:00,
2013-03-08 13:22:00,38.0,31.0,30.42,SE,127,2.0,6.0,76,0.00,,,0.00,,2013-03-08 19:22:00,
2013-03-08 13:32:00,39.0,32.0,30.41,SSE,153,2.0,5.0,75,0.00,,,0.00,,2013-03-08 19:32:00,
2013-03-08 13:42:00,39.0,32.0,30.41,SSE,153,2.0,5.0,75,0.00,,,0.00,,2013-03-08 19:42:00,
2013-03-08 13:52:00,39.0,32.0,30.40,SE,129,1.0,7.0,76,0.00,,,0.00,,2013-03-08 19:52:00,
2013-03-08 14:01:00,40.0,33.0,30.40,SE,139,1.0,5.0,75,0.00,,,0.00,,2013-03-08 20:01:00,
2013-03-08 14:11:00,40.0,33.0,30.40,SE,139,1.0,5.0,75,0.00,,,0.00,,2013-03-08 20:11:00,
2013-03-08 14:21:00,41.0,33.0,30.40,ENE,78,0.0,2.0,73,0.00,,,0.00,,2013-03-08 20:21:00,
2013-03-08 14:32:00,41.0,33.0,30.39,ESE,104,1.0,4.0,73,0.00,,,0.00,,2013-03-08 20:32:00,
2013-03-08 14:42:00,41.0,33.0,30.39,ESE,104,1.0,4.0,73,0.00,,,0.00,,2013-03-08 20:42:00,
2013-03-08 14:53:00,41.0,33.0,30.39,ESE,104,1.0,4.0,73,0.00,,,0.00,,2013-03-08 20:53:00,
2013-03-08 15:02:00,41.0,33.0,30.37,SSE,150,0.0,3.0,73,0.00,,,0.00,,2013-03-08 21:02:00,
2013-03-08 15:11:00,41.0,33.0,30.37,SSE,150,0.0,3.0,73,0.00,,,0.00,,2013-03-08 21:11:00,
2013-03-08 15:21:00,41.0,33.0,30.37,NE,49,0.0,3.0,72,0.00,,,0.00,,2013-03-08 21:21:00,
2013-03-08 15:32:00,41.0,32.0,30.37,ESE,123,0.0,3.0,71,0.00,,,0.00,,2013-03-08 21:32:00,
2013-03-08 15:42:00,41.0,32.0,30.37,ESE,123,0.0,3.0,71,0.00,,,0.00,,2013-03-08 21:42:00,
2013-03-08 15:52:00,40.0,32.0,30.37,NE,41,1.0,4.0,74,0.00,,,0.00,,2013-03-08 21:52:00,
2013-03-08 16:01:00,40.0,33.0,30.37,ESE,102,0.0,3.0,75,0.00,,,0.00,,2013-03-08 22:01:00,
2013-03-08 16:11:00,40.0,33.0,30.37,ESE,102,0.0,3.0,75,0.00,,,0.00,,2013-03-08 22:11:00,
2013-03-08 16:22:00,40.0,33.0,30.37,East,81,0.0,1.0,75,0.00,,,0.00,,2013-03-08 22:22:00,
2013-03-08 16:32:00,40.0,32.0,30.38,NE,35,0.0,2.0,73,0.00,,,0.00,,2013-03-08 22:32:00,
2013-03-08 16:42:00,40.0,32.0,30.38,NE,35,0.0,2.0,73,0.00,,,0.00,,2013-03-08 22:42:00,
2013-03-08 16:53:00,39.0,31.0,30.37,ENE,57,0.0,2.0,74,0.00,,,0.00,,2013-03-08 22:53:00,
2013-03-08 17:01:00,39.0,32.0,30.37,NE,55,0.0,2.0,75,0.00,,,0.00,,2013-03-08 23:01:00,
2013-03-08 17:12:00,39.0,32.0,30.37,NE,55,0.0,2.0,75,0.00,,,0.00,,2013-03-08 23:12:00,
2013-03-08 17:21:00,37.0,31.0,30.37,ENE,57,0.0,2.0,78,0.00,,,0.00,,2013-03-08 23:21:00,
2013-03-08 17:32:00,36.0,31.0,30.37,East,98,0.0,2.0,81,0.00,,,0.00,,2013-03-08 23:32:00,
2013-03-08 17:42:00,36.0,31.0,30.37,East,98,0.0,2.0,81,0.00,,,0.00,,2013-03-08 23:42:00,
2013-03-08 17:53:00,35.0,30.0,30.37,NE,41,0.0,1.0,83,0.00,,,0.00,,2013-03-08 23:53:00,
2013-03-08 18:02:00,34.0,30.0,30.37,ENE,63,0.0,0.0,85,0.00,,,0.00,,2013-03-09 00:02:00,
2013-03-08 18:11:00,34.0,30.0,30.37,ENE,63,0.0,0.0,85,0.00,,,0.00,,2013-03-09 00:11:00,
2013-03-08 18:22:00,33.0,29.0,30.37,South,182,0.0,2.0,86,0.00,,,0.00,,2013-03-09 00:22:00,
2013-03-08 18:32:00,33.0,30.0,30.37,SE,124,0.0,2.0,87,0.00,,,0.00,,2013-03-09 00:32:00,
2013-03-08 18:42:00,33.0,30.0,30.37,SE,124,0.0,2.0,87,0.00,,,0.00,,2013-03-09 00:42:00,
2013-03-08 18:52:00,32.0,29.0,30.37,ESE,122,0.0,1.0,87,0.00,,,0.00,,2013-03-09 00:52:00,
2013-03-08 19:01:00,32.0,29.0,30.38,ESE,111,0.0,0.0,88,0.00,,,0.00,,2013-03-09 01:01:00,
2013-03-08 19:12:00,31.0,28.0,30.37,ESE,111,0.0,0.0,88,0.00,,,0.00,,2013-03-09 01:12:00,
2013-03-08 19:22:00,31.0,28.0,30.37,ESE,111,0.0,0.0,88,0.00,,,0.00,,2013-03-09 01:22:00,
2013-03-08 19:32:00,31.0,28.0,30.37,ESE,111,0.0,1.0,89,0.00,,,0.00,,2013-03-09 01:32:00,
2013-03-08 19:42:00,31.0,28.0,30.37,ESE,111,0.0,1.0,89,0.00,,,0.00,,2013-03-09 01:42:00,
2013-03-08 19:52:00,31.0,28.0,30.37,ESE,116,0.0,1.0,89,0.00,,,0.00,,2013-03-09 01:52:00,
2013-03-08 20:01:00,31.0,28.0,30.37,ESE,121,0.0,2.0,89,0.00,,,0.00,,2013-03-09 02:01:00,
2013-03-08 20:11:00,31.0,28.0,30.37,ESE,121,0.0,2.0,89,0.00,,,0.00,,2013-03-09 02:11:00,
2013-03-08 20:21:00,31.0,28.0,30.36,ESE,117,0.0,2.0,89,0.00,,,0.00,,2013-03-09 02:21:00,
2013-03-08 20:31:00,31.0,28.0,30.35,East,89,0.0,2.0,89,0.00,,,0.00,,2013-03-09 02:31:00,
2013-03-08 20:41:00,31.0,28.0,30.34,ENE,72,0.0,2.0,89,0.00,,,0.00,,2013-03-09 02:41:00,
2013-03-08 20:51:00,31.0,28.0,30.34,ENE,72,0.0,2.0,89,0.00,,,0.00,,2013-03-09 02:51:00,
2013-03-08 21:01:00,31.0,28.0,30.34,SE,130,0.0,2.0,90,0.00,,,0.00,,2013-03-09 03:01:00,
2013-03-08 21:11:00,31.0,28.0,30.34,SE,130,0.0,2.0,90,0.00,,,0.00,,2013-03-09 03:11:00,
2013-03-08 21:21:00,31.0,28.0,30.33,NE,55,0.0,2.0,90,0.00,,,0.00,,2013-03-09 03:21:00,
2013-03-08 21:31:00,31.0,28.0,30.33,ENE,73,0.0,2.0,90,0.00,,,0.00,,2013-03-09 03:31:00,
2013-03-08 21:41:00,31.0,28.0,30.33,ENE,73,0.0,2.0,90,0.00,,,0.00,,2013-03-09 03:41:00,
2013-03-08 21:52:00,31.0,28.0,30.33,NE,51,0.0,3.0,90,0.00,,,0.00,,2013-03-09 03:52:00,
2013-03-08 22:01:00,31.0,28.0,30.32,SE,134,0.0,2.0,90,0.00,,,0.00,,2013-03-09 04:01:00,
2013-03-08 22:11:00,31.0,28.0,30.32,SE,134,0.0,2.0,90,0.00,,,0.00,,2013-03-09 04:11:00,
2013-03-08 22:22:00,31.0,28.0,30.32,ESE,123,0.0,3.0,90,0.00,,,0.00,,2013-03-09 04:22:00,
2013-03-08 22:32:00,31.0,28.0,30.32,East,82,0.0,3.0,89,0.00,,,0.00,,2013-03-09 04:32:00,
2013-03-08 22:41:00,31.0,28.0,30.32,East,82,0.0,3.0,89,0.00,,,0.00,,2013-03-09 04:41:00,
2013-03-08 22:51:00,31.0,28.0,30.32,SSE,149,0.0,2.0,89,0.00,,,0.00,,2013-03-09 04:51:00,
2013-03-08 23:02:00,31.0,28.0,30.30,East,88,0.0,3.0,89,0.00,,,0.00,,2013-03-09 05:02:00,
2013-03-08 23:12:00,31.0,28.0,30.30,East,88,0.0,3.0,89,0.00,,,0.00,,2013-03-09 05:12:00,
2013-03-08 23:21:00,31.0,28.0,30.30,SE,144,0.0,3.0,88,0.00,,,0.00,,2013-03-09 05:21:00,
2013-03-08 23:31:00,31.0,28.0,30.29,East,88,0.0,3.0,87,0.00,,,0.00,,2013-03-09 05:31:00,
2013-03-08 23:42:00,31.0,28.0,30.29,East,88,0.0,3.0,87,0.00,,,0.00,,2013-03-09 05:42:00,
2013-03-08 23:52:00,31.0,28.0,30.29,SE,132,0.0,3.0,87,0.00,,,0.00,,2013-03-09 05:52:00,